Tracking 25963 objects as of 12-Aug-2022
HD Live streaming from Space Station
objects crossing your sky now

RESURS O1 DEB

Track RESURS O1 DEB now!
10-day predictions


NORAD ID: 46513
Int'l Code: 1994-074AZ
Perigee: 575.8 km
Apogee: 579.7 km
Inclination: 97.9 °
Period: 96.1 minutes
Semi major axis: 6948 km
RCS: Unknown
Launch date: November 4, 1994
Source: Commonwealth of Independent States (former USSR) (CIS)
Launch site: TYURATAM MISSILE AND SPACE COMPLEX (TTMTR)

Note: This is SATELLITE DEBRIS
aabbcc
Your satellite tracking list
Your tracking list is empty




NASA's NSSDC Master Catalog

Two Line Element Set (TLE):
1 46513U 94074AZ  22224.13301021  .00045559  00000-0  37613-2 0  9996
2 46513  97.9175 282.0070 0002828 115.2647 244.8868 14.98807357105260
Source of the keplerian elements: AFSPC